Location: Spring Creek
(38.2870°N, 100.2160°W)
Time: 22:18:18
(UTC+00:00)

Terra - Pass Details

Date: 08 May 2021
Orbit: 701 x 703 km, 98.2° (Epoch: 21 June)

Event Time Altitude Azimuth Distance (km) Brightness Sun altitude
Exits shadow 04:33:21 59° 24° (NNE) 811 2.1 -27.4°
Drops below altitude 10° 04:37:23 10° 352° (N) 2,178 5.1 -27.8°
Sets 04:39:39 0° 351° (N) 3,100 6.2 -28.1°
